FENGYUN 1C DEB, 30542

Orbit data source: Space-Track

FENGYUN 1C DEB, 30542 is space debris in SSO originally from a launch on Mon, 10 May 1999 UTC launched from the Taiyaun Space Center, China (TSC). Fengyun 1C debris stems from the Chinese weather satellite Fengyun-1C, which was intentionally destroyed by a Chinese anti-satellite missile in 2007. This event dramatically increased the amount of space debris, with thousands of trackable fragments posing hazards to satellites and human spaceflight. The Fengyun 1C debris cloud has become a focal point in discussions about space sustainability and the need for international regulations to prevent the creation of new debris.

Loading next visibility...
Identifier
30542, 1999-025AKG
Orbit
SSO
Country
Flag of CNCN / PRC
Related business
Manufacturer
Unknown
Mission
Spacecraft
Bus & Motor
Unknown
Mass
Unknown
Launch date (UTC)
1999-05-10 (27 years ago)
Launch vehicle
Unknown
Launch site
Taiyaun Space Center, China (TSC)
Object type
Payload
Rocket body
Debris
Shape & HBR
Unknown shape, 0.1 m
Radar Cross Section
Medium (>0.1 m² and <1 m²)

Expand to show TLE details & history
Last TLE update: 1 day ago

TLE from 1 day ago
0 FENGYUN 1C DEB
1 30542U 99025AKG 26207.32545980  .00000039  00000-0  48585-4 0  9998
2 30542  98.7646 234.4410 0029018  59.0615 314.4069 14.07081063   760
Epoch: 2026-07-26T07:48Z
TLE epoch observation values (Epoch: 2026-07-26T07:48:39.726Z)
Latitude
13.03709°
Longitude
171.21541°
Altitude
856.834 km
Speed
7.433 km/s
True Right ascension
15h 29m 37s
True Declination
12° 57' 46"
Sunlit
Object was in daylight at epoch
Visualization orbit readout
Latitude
Unknown
Longitude
Unknown
Altitude
Unknown
Speed
Unknown
Apparent Right ascension
Unknown
Apparent Declination
Unknown
Sunlit
N/A
Visualization observer readout
Local Sidereal Time
00:29:30
Azimuth
Unknown
Elevation
Unknown
Doppler factor
Unknown
Orbital elements
Apogee altitude
887.579 km
Perigee altitude
845.533 km
Semi-major axis
7,244.693 km
Eccentricity
0.0029
Inclination
98.7646°
RAAN
234.441°
Arg. of periapsis
59.0615°
True anomaly
314.16875°
Mean anomaly
314.4069°
Eccentric anomaly
314.28788°
Mean motion
3.51976 °/min
Orbital period
102.28 mins
BSTAR
0.000048585
Loading maneuver chart data...
Computing Atmospheric mass density...

Documentation

Showing up to 5 results
|